[[{"header":{"parameterUnit":"m.s-1","parameterCategory":1,"la1":30.2991,"la2":30.254,"lo1":-89.0895,"lo2":-89.0444,"dy":0.0017,"dx":0.0017,"nx":28,"ny":28,"refTime":"2023-10-29T21:00:00:Z","depth":0,"parameterNumber":2,"parameterNumberName":"U-component_of_WINDS"},"data":[0,0,0,0,0,0,0,0,0,0,0,0,0,0,0,0,0,0,0,0,0,0,0,0,0,0,0,0,0,0,0,0,0,0,0,0,0,0,0,0,0,0,0,0,0,0,0,0,0,0,0,0,0,0,0,0,0,0,-2.7013,-2.7014,0,-2.7101,-2.7102,-2.7103,-2.7119,-2.7119,-2.7118,-2.7117,-2.7208,-2.7211,-2.7214,0,0,0,0,0,0,0,0,0,0,0,0,0,-2.6864,-2.6866,-2.7013,-2.7014,-2.7015,-2.7101,-2.7102,-2.7103,-2.712,-2.7119,-2.7118,-2.7117,-2.7207,-2.721,-2.7214,0,0,0,0,0,0,0,0,0,0,0,0,0,-2.6938,-2.6867,-2.7013,-2.7034,-2.7037,-2.7101,-2.7102,-2.7104,-2.712,-2.7119,-2.7118,-2.7117,-2.7205,-2.721,-2.7214,-2.7264,0,0,-2.7228,-2.723,0,0,0,0,0,0,0,0,-2.6933,-2.6943,-2.703,-2.7033,-2.7036,-2.7098,-2.7082,-2.7157,-2.712,-2.7088,-2.7117,-2.7116,-2.7172,-2.7179,-2.7198,-2.7268,-2.7272,-2.7229,-2.7232,-2.7233,-2.7235,0,0,0,0,0,0,0,-2.6928,-2.6939,-2.7048,-2.7031,-2.7035,-2.704,-2.7049,-2.7097,-2.7135,-2.7091,-2.7092,-2.7102,-2.7174,-2.7194,-2.72,-2.7273,-2.7229,-2.7233,-2.7236,-2.7237,-2.7392,-2.7393,0,0,0,0,0,0,-2.6919,-2.6935,-2.7045,-2.7051,-2.6981,-2.7044,-2.7054,-2.7079,-2.7135,-2.7142,-2.7103,-2.7103,-2.7186,-2.7195,-2.7204,-2.7266,-2.7233,-2.7238,-2.724,-2.7391,-2.7392,-2.7394,0,0,0,0,0,0,-2.6916,-2.6929,-2.7042,-2.6993,-2.7008,-2.7047,-2.7075,-2.7082,-2.7102,-2.7144,-2.7151,-2.7116,-2.7186,-2.7197,-2.725,-2.727,-2.724,-2.7244,-2.7389,-2.7391,-2.7393,-2.7391,0,0,0,0,0,0,-2.6911,-2.6927,-2.6945,-2.6994,-2.7011,-2.7085,-2.7077,-2.7084,-2.7109,-2.711,-2.7158,-2.7165,-2.7186,-2.7243,-2.7254,-2.7275,-2.7248,-2.7387,-2.739,-2.7392,-2.739,-2.7393,-2.7396,0,0,0,0,0,-2.6906,-2.6941,-2.6946,-2.6959,-2.7034,-2.7086,-2.7096,-2.7118,-2.7111,-2.713,-2.7158,-2.7164,-2.7267,-2.7248,-2.7261,-2.7284,-2.7386,-2.7389,-2.7392,-2.7388,-2.7393,-2.7396,0,0,0,0,0,0,-2.6893,-2.6947,-2.6954,-2.7005,-2.7041,-2.7088,-2.7113,-2.7122,-2.716,-2.7159,-2.7186,-2.7197,-2.7248,-2.7272,-2.725,-2.7337,-2.7326,-2.7332,-2.7319,-2.7323,-2.7326,-2.7318,-2.7251,0,0,0,0,0,-2.6896,-2.6933,-2.6979,-2.702,-2.7038,-2.7073,-2.7096,-2.7111,-2.7149,-2.7164,-2.7196,-2.7233,-2.7275,-2.73,-2.734,-2.7395,-2.7406,-2.7418,-2.7421,-2.7423,-2.7427,-2.746,-2.7466,-2.7404,-2.7404,-2.7404,0,0,-2.6902,-2.6937,-2.6958,-2.7018,-2.7048,-2.7087,-2.7085,-2.7125,-2.7155,-2.7171,-2.7222,-2.7247,-2.7291,-2.7345,-2.7371,-2.7366,-2.7448,-2.7427,-2.7429,-2.7431,-2.7464,-2.747,-2.7475,-2.7406,-2.7406,-2.7405,0,0,-2.6934,-2.6963,-2.7001,-2.7032,-2.7077,-2.7101,-2.7111,-2.7158,-2.7176,-2.7228,-2.7242,-2.7278,-2.7348,-2.7379,-2.7404,-2.7454,-2.746,-2.7466,-2.7481,-2.7513,-2.7518,-2.7522,-2.754,-2.7546,-2.7471,-2.7471,-2.7471,0,-2.6935,-2.6994,-2.702,-2.7061,-2.7088,-2.7106,-2.7146,-2.7174,-2.723,-2.7249,-2.7244,-2.7334,-2.7365,-2.7428,-2.744,-2.746,-2.7473,-2.7459,-2.7515,-2.752,-2.7524,-2.7542,-2.7548,-2.7471,-2.7471,-2.7471,-2.7471,0,-2.6995,-2.7035,-2.7061,-2.7116,-2.7146,-2.7186,-2.722,-2.7248,-2.7262,-2.7287,-2.7342,-2.7381,-2.743,-2.7447,-2.746,-2.7513,-2.7509,-2.7509,-2.7498,-2.753,-2.7547,-2.7554,-2.7471,-2.7471,-2.7471,-2.7471,0,0,-2.7015,-2.7087,-2.7096,-2.7122,-2.7176,-2.7209,-2.7252,-2.73,-2.7324,-2.7364,-2.7401,-2.7462,-2.7464,-2.7493,-2.7511,-2.7539,-2.7577,-2.7537,-2.7538,-2.7542,-2.7639,-2.7637,-2.7644,-2.7584,-2.7586,-2.7587,-2.7635,0,-2.7052,-2.7127,-2.7155,-2.7217,-2.7256,-2.7277,-2.7315,-2.7353,-2.7379,-2.7417,-2.7446,-2.7489,-2.7488,-2.7506,-2.7535,-2.7566,-2.7597,-2.7564,-2.7619,-2.7621,-2.7605,-2.7652,-2.7649,-2.7693,-2.7642,-2.7643,-2.7644,0,-2.7104,-2.7146,-2.7212,-2.7264,-2.7282,-2.7314,-2.7363,-2.7399,-2.7445,-2.7462,-2.7496,-2.7514,-2.7562,-2.7551,-2.7618,-2.7595,-2.762,-2.764,-2.7642,-2.7646,-2.7632,-2.7657,-2.7707,-2.7713,-2.7654,-2.7654,-2.7653,0,-2.7112,-2.7185,-2.7235,-2.7257,-2.7319,-2.7342,-2.7369,-2.7413,-2.7442,-2.7486,-2.7505,-2.7554,-2.758,-2.7618,-2.7649,-2.7638,-2.7714,-2.7705,-2.773,-2.7729,-2.7742,-2.774,-2.7796,-2.7762,-2.7761,-2.7761,-2.7761,0,-2.7149,-2.7189,-2.7239,-2.7269,-2.7316,-2.7349,-2.7394,-2.7423,-2.7463,-2.7501,-2.7523,-2.7558,-2.7598,-2.7639,-2.7664,-2.7717,-2.7729,-2.7745,-2.775,-2.7741,-2.7739,-2.7756,-2.7753,-2.7763,-2.7763,-2.7762,-2.7762,0,-2.7164,-2.7199,-2.7255,-2.7311,-2.7326,-2.7358,-2.7406,-2.7437,-2.7466,-2.7514,-2.7527,-2.7573,-2.7622,-2.7658,-2.7722,-2.774,-2.7796,-2.7802,-2.778,-2.7783,-2.7805,-2.7802,-2.7872,-2.7883,-2.7842,-2.7842,-2.7843,0,-2.7184,-2.7216,-2.7276,-2.7303,-2.733,-2.7373,-2.7403,-2.7438,-2.7469,-2.7526,-2.7551,-2.7603,-2.7645,-2.7725,-2.7764,-2.7814,-2.7821,-2.7843,-2.7828,-2.7819,-2.7821,-2.7818,-2.7821,-2.7843,-2.7844,-2.7844,-2.7844,0,-2.7217,-2.7234,-2.7276,-2.7326,-2.7361,-2.7402,-2.7443,-2.7464,-2.7508,-2.7542,-2.7593,-2.7627,-2.7694,-2.7745,-2.78,-2.783,-2.7845,-2.7849,-2.7857,-2.7847,-2.7832,-2.784,-2.7784,-2.7846,-2.7846,-2.7846,-2.7846,-2.7846,-2.7235,-2.7264,-2.7312,-2.7359,-2.7394,-2.7433,-2.7466,-2.75,-2.7544,-2.7601,-2.762,-2.7674,-2.7723,-2.7798,-2.7829,-2.7873,-2.7872,-2.7883,-2.7886,-2.7888,-2.7887,-2.7828,-2.7883,-2.7883,-2.7883,-2.7883,-2.7883,0,-2.7268,-2.73,-2.7344,-2.7401,-2.7439,-2.7452,-2.7499,-2.753,-2.7577,-2.7621,-2.7664,-2.7725,-2.7776,-2.7821,-2.7875,-2.7902,-2.791,-2.7914,-2.7912,-2.7919,-2.7885,-2.7872,-2.7907,-2.7907,-2.7907,-2.7907,-2.7907,-2.7907,-2.7289,-2.734,-2.7363,-2.7434,-2.7467,-2.7519,-2.7545,-2.7582,-2.7618,-2.7685,-2.7727,-2.7757,-2.7803,-2.7861,-2.7909,-2.7922,-2.794,-2.7943,-2.7956,-2.7924,-2.7921,-2.7918,-2.7906,-2.7947,-2.7947,-2.7986,-2.7986,-2.7986]},{"header":{"parameterUnit":"m.s-1","parameterCategory":1,"la1":30.2991,"la2":30.254,"lo1":-89.0895,"lo2":-89.0444,"dy":0.0017,"dx":0.0017,"nx":28,"ny":28,"refTime":"2023-10-29T21:00:00:Z","depth":0,"parameterNumber":3,"parameterNumberName":"V-component_of_WINDS"},"data":[0,0,0,0,0,0,0,0,0,0,0,0,0,0,0,0,0,0,0,0,0,0,0,0,0,0,0,0,0,0,0,0,0,0,0,0,0,0,0,0,0,0,0,0,0,0,0,0,0,0,0,0,0,0,0,0,0,0,2.1765,2.1766,0,2.1821,2.1822,2.1823,2.1932,2.1934,2.1936,2.1938,2.1991,2.1991,2.199,0,0,0,0,0,0,0,0,0,0,0,0,0,2.175,2.175,2.1765,2.1766,2.1766,2.1821,2.1822,2.1823,2.1932,2.1934,2.1937,2.1939,2.1991,2.1991,2.199,0,0,0,0,0,0,0,0,0,0,0,0,0,2.1776,2.175,2.1765,2.1827,2.1834,2.1821,2.1822,2.1823,2.1931,2.1934,2.1937,2.194,2.1992,2.1991,2.199,2.192,0,0,2.1987,2.1987,0,0,0,0,0,0,0,0,2.1775,2.1777,2.1817,2.1823,2.183,2.1873,2.1836,2.1855,2.193,2.1894,2.1938,2.1942,2.1949,2.1952,2.1955,2.1922,2.1924,2.1987,2.1986,2.1986,2.1986,0,0,0,0,0,0,0,2.1773,2.1775,2.1787,2.1818,2.1826,2.1852,2.1859,2.184,2.1902,2.1897,2.1905,2.1911,2.1953,2.1956,2.1957,2.1925,2.1987,2.1986,2.1986,2.1985,2.1841,2.1838,0,0,0,0,0,0,2.1762,2.1773,2.1785,2.1789,2.181,2.185,2.1858,2.1856,2.1903,2.1913,2.1908,2.1916,2.1956,2.1958,2.1959,2.1882,2.1986,2.1985,2.1985,2.1844,2.184,2.1837,0,0,0,0,0,0,2.1761,2.1762,2.1783,2.1783,2.1788,2.1847,2.1843,2.1855,2.1858,2.1911,2.1922,2.1899,2.1958,2.1961,2.193,2.1886,2.1985,2.1984,2.1848,2.1843,2.1838,2.1726,0,0,0,0,0,0,2.176,2.1761,2.1735,2.1782,2.1787,2.1752,2.1841,2.1854,2.1857,2.1867,2.1906,2.1916,2.1961,2.1931,2.1929,2.1886,2.1983,2.1852,2.1846,2.184,2.1734,2.1718,2.1704,0,0,0,0,0,2.176,2.1699,2.1733,2.1734,2.1756,2.175,2.1753,2.1808,2.1853,2.1827,2.1862,2.1914,2.1891,2.1926,2.1925,2.1882,2.1855,2.1848,2.184,2.174,2.1721,2.1704,0,0,0,0,0,0,2.1643,2.1707,2.1745,2.1698,2.1718,2.1768,2.1737,2.1785,2.1791,2.18,2.1867,2.1875,2.1835,2.1856,2.1894,2.1818,2.1882,2.1874,2.1806,2.1788,2.1773,2.1769,2.1983,0,0,0,0,0,2.1613,2.1604,2.1659,2.1612,2.1621,2.1677,2.1676,2.1717,2.174,2.1748,2.1781,2.18,2.1798,2.1794,2.1794,2.1738,2.1749,2.1708,2.1693,2.168,2.1672,2.1647,2.163,2.1812,2.1812,2.1812,0,0,2.1549,2.1582,2.1571,2.159,2.161,2.1599,2.1683,2.1667,2.1659,2.1745,2.1719,2.1744,2.177,2.1727,2.1709,2.1742,2.1625,2.1671,2.166,2.1659,2.1637,2.162,2.1604,2.1807,2.1808,2.1809,0,0,2.1426,2.145,2.1416,2.1435,2.1466,2.1505,2.1496,2.154,2.1561,2.1536,2.1602,2.1593,2.1587,2.1603,2.1611,2.1499,2.1548,2.1497,2.1419,2.1393,2.1379,2.1366,2.1328,2.1313,2.1489,2.1489,2.1489,0,2.1342,2.1328,2.1391,2.1372,2.1379,2.146,2.1425,2.1441,2.1469,2.1472,2.1509,2.1505,2.1528,2.1491,2.1465,2.1468,2.1461,2.1492,2.1376,2.1364,2.1353,2.1317,2.1302,2.1483,2.1483,2.1484,2.1485,0,2.1224,2.1214,2.1182,2.1211,2.1214,2.1187,2.1246,2.1241,2.1283,2.1318,2.1293,2.1324,2.1333,2.1328,2.1367,2.1297,2.1317,2.1364,2.1429,2.1329,2.1296,2.1282,2.1474,2.1476,2.1478,2.1479,0,0,2.1027,2.1094,2.1081,2.1097,2.1138,2.1131,2.1109,2.112,2.1116,2.1134,2.1117,2.1112,2.1157,2.1165,2.1208,2.1185,2.1097,2.1236,2.1237,2.1209,2.1024,2.0988,2.0971,2.113,2.1128,2.1126,2.1022,0,2.0914,2.0881,2.0938,2.0891,2.0883,2.0962,2.0943,2.0966,2.0999,2.0997,2.1033,2.1029,2.1088,2.1094,2.1075,2.1111,2.106,2.112,2.1115,2.1114,2.1106,2.0954,2.0915,2.0816,2.101,2.1007,2.1006,0,2.0777,2.0791,2.0743,2.0792,2.0791,2.0772,2.0789,2.0786,2.0815,2.0841,2.0852,2.0904,2.0886,2.095,2.0926,2.0965,2.0967,2.0985,2.0983,2.0984,2.1053,2.0951,2.0785,2.077,2.0986,2.0988,2.0989,0,2.0639,2.0646,2.062,2.063,2.0685,2.0671,2.0693,2.0726,2.073,2.0744,2.0748,2.0759,2.0765,2.0773,2.0827,2.0868,2.0797,2.0865,2.0818,2.0816,2.0798,2.0799,2.063,2.0799,2.0799,2.08,2.08,0,2.0507,2.0475,2.0559,2.0543,2.051,2.0577,2.0543,2.0573,2.0602,2.0593,2.0661,2.0651,2.0722,2.072,2.0762,2.0737,2.0738,2.0759,2.077,2.0753,2.075,2.0754,2.0763,2.0796,2.0797,2.0797,2.0798,0,2.0347,2.0402,2.0379,2.0434,2.0447,2.0421,2.0468,2.0455,2.0494,2.0482,2.0483,2.0543,2.0544,2.0599,2.0611,2.0639,2.0597,2.0621,2.0587,2.0595,2.0546,2.055,2.0374,2.0355,2.0535,2.0533,2.0532,0,2.0258,2.0236,2.0291,2.0291,2.031,2.0308,2.0314,2.038,2.0383,2.0417,2.04,2.0408,2.0417,2.0416,2.046,2.047,2.0496,2.0433,2.0497,2.0481,2.0496,2.0496,2.0495,2.0419,2.0417,2.0415,2.0414,0,2.0096,2.0126,2.0132,2.0149,2.0155,2.0171,2.0191,2.0186,2.0259,2.0259,2.0263,2.027,2.0285,2.0292,2.0311,2.0334,2.0385,2.0394,2.0384,2.0365,2.0347,2.0357,2.0551,2.0397,2.0399,2.04,2.0401,2.0401,1.997,1.9955,1.9992,1.9998,2.0021,2.0039,2.0031,2.007,2.0074,2.0093,2.0131,2.0129,2.0162,2.0193,2.0212,2.0211,2.0243,2.0227,2.0224,2.0219,2.021,2.0348,2.0215,2.0215,2.0216,2.0216,2.0217,0,1.9812,1.9841,1.9846,1.9873,1.9878,1.993,1.9956,1.9956,1.9954,1.9981,1.999,1.9995,2.0003,2.005,2.0063,2.0054,2.0078,2.0055,2.0056,2.0061,2.018,2.0188,2.0035,2.0035,2.0035,2.0035,2.0035,2.0035,1.9731,1.9709,1.9743,1.9734,1.9763,1.9763,1.9774,1.9792,1.9814,1.9817,1.9825,1.9856,1.9892,1.9909,1.9919,1.9932,1.9934,1.9903,1.9924,2.0035,2.0052,2.0069,2.0077,1.9903,1.9903,1.9805,1.9804,1.9804]}]]